DECAYED

STARLINK-5890, 57265 (Decayed)

Orbit data source: Space-Track

STARLINK-5890, 57265 was a payload satellite owned by SpaceX/Seattle (US) in LEO that was launched on Fri, 07 Jul 2023 UTC via an FALCON 9 launch vehicle from the Air Force Western Test Range (AFWTR). Payload-class satellites include a variety of spacecraft equipped with specific instruments for various scientific and technological missions. These include communications satellites like Starlink; space stations such as the ISS; scientific satellites like the Hubble; Earth observation satellites from companies like Planet Labs, Umbra, and HawkEye 360; GPS; miniature CubeSats for education and research; and military/defense satellites.

Not visible in the next 10 days
Identifier
57265, 2023-094AZ
Orbit
Decayed
Country
Flag of USUS
Related business
Manufacturer
SpaceX/Seattle
Mission
Decayed Commercial Communications
Bus & Motor
STARLINK, Unknown motor
Mass
305 kg wet, ~290 kg dry
Launch date (UTC)
2023-07-07 (3 years ago)
Launch vehicle
FALCON 9
Launch site
Air Force Western Test Range (AFWTR)
Object type
Payload
Rocket body
Debris
Shape & HBR
Box + 1 Pan, 10.1 m
Radar Cross Section
11.087 m², Large (>1 m²)

Expand to show TLE details & history
Last TLE update: 4 months ago

TLE from 4 months ago
0 STARLINK-5890
1 57265U 23094AZ  26049.44920444  .08141653  92310-5  48961-3 0  9994
2 57265  42.9872  82.0188 0007436 200.8001 159.2591 16.41207810144839
Epoch: 2026-02-18T10:46Z
TLE epoch observation values (Epoch: 2026-02-18T10:46:51.263Z)
Latitude
0.00001°
Longitude
131.89053°
Altitude
166.903 km
Speed
7.805 km/s
True Right ascension
05h 28m 04s
True Declination
0° 00' 00"
Sunlit
Object was in full shadow at epoch
Visualization orbit readout
Latitude
Unknown
Longitude
Unknown
Altitude
Unknown
Speed
Unknown
Apparent Right ascension
Unknown
Apparent Declination
Unknown
Sunlit
N/A
Visualization observer readout
Local Sidereal Time
21:28:31
Azimuth
Unknown
Elevation
Unknown
Doppler factor
Unknown
Orbital elements
Apogee altitude
169.499 km
Perigee altitude
159.769 km
Semi-major axis
6,542.771 km
Eccentricity
0.00074
Inclination
42.9872°
RAAN
82.0188°
Arg. of periapsis
200.8001°
True anomaly
159.28925°
Mean anomaly
159.2591°
Eccentric anomaly
159.27418°
Mean motion
4.1011 °/min
Orbital period
87.78 mins
BSTAR
0.00048961
Loading maneuver chart data...
Computing Atmospheric mass density...
Loading historical data...
Loading historical data...
Loading historical data...
Loading historical data...
Loading historical data...
Loading historical data...
Loading historical data...

Documentation

Showing up to 5 results
|